User: anonymous   Login
Location: Bishop�s Knoyle
(51.0728°N, 2.1714°W)
Time: 19:57:39
(UTC+00:00)
Language:

Lacrosse 4 Rocket - Orbit

View from above orbital plane
View from above orbital plane
View from above satellite
View from above satellite

Ground track
Ground track

The orbit data is extracted from the following two-line orbital elements,

1 26474U 00047B   20333.12367479  .00000421  00000-0  47271-4 0  9996
2 26474  67.9940 345.1617 0054759  12.3818 347.8654 14.96026788103800
Epoch (UTC): 28 November 2020 02:58:05
Eccentricity: 0.0054759
inclination: 67.9940°
perigee height: 541 km
apogee height: 617 km
right ascension of ascending node: 345.1617°
argument of perigee: 12.3818°
revolutions per day: 14.96026788
mean anomaly at epoch: 347.8654°
orbit number at epoch: 10380

The dashed part of the orbit path shows where the satellite is in the earth's shadow,  

DLR